| time (UTC) | temp F | wind direction | speed MPH | gust MPH | rain 1hr in | rain 24hr in | rain mn in | humidity % | barometer mb |
| 20260503220825 | 45 | 148 | 1.0 | 1.0 | 0.00 | 0.87 | 0.17 | 94 | 1008.4 |
| 20260503220332 | 45 | 148 | 0.0 | 2.0 | 0.00 | 0.87 | 0.17 | 94 | 1008.4 |
| 20260503215841 | 45 | 148 | 1.0 | 2.0 | 0.00 | 0.87 | 0.17 | 94 | 1008.5 |
| 20260503215348 | 45 | 148 | 0.0 | 0.0 | 0.00 | 0.87 | 0.17 | 94 | 1008.5 |
| 20260503214848 | 45 | 148 | 0.0 | 0.0 | 0.00 | 0.87 | 0.17 | 94 | 1008.6 |
| 20260503214328 | 45 | 148 | 0.0 | 0.0 | 0.00 | 0.87 | 0.17 | 94 | 1008.6 |
| 20260503213849 | 45 | 148 | 0.0 | 1.0 | 0.00 | 0.87 | 0.17 | 94 | 1008.7 |
| 20260503213329 | 45 | 148 | 0.0 | 2.0 | 0.00 | 0.87 | 0.17 | 94 | 1008.7 |
| 20260503212830 | 45 | 148 | 1.0 | 2.0 | 0.00 | 0.87 | 0.17 | 94 | 1008.7 |
| 20260503212329 | 45 | 148 | 0.0 | 1.0 | 0.00 | 0.87 | 0.17 | 94 | 1008.8 |
| 20260503211830 | 45 | 148 | 0.0 | 1.0 | 0.00 | 0.87 | 0.17 | 94 | 1008.8 |
| 20260503211330 | 45 | 148 | 0.0 | 1.0 | 0.00 | 0.87 | 0.17 | 94 | 1008.8 |
| 20260503210831 | 45 | 148 | 0.0 | 1.0 | 0.00 | 0.87 | 0.17 | 94 | 1008.8 |
| 20260503210352 | 45 | 148 | 0.0 | 1.0 | 0.00 | 0.87 | 0.17 | 94 | 1008.8 |
| 20260503205831 | 45 | 148 | 0.0 | 1.0 | 0.00 | 0.87 | 0.17 | 94 | 1008.8 |
| 20260503205332 | 45 | 148 | 0.0 | 2.0 | 0.00 | 0.87 | 0.17 | 94 | 1008.9 |
| 20260503204859 | 45 | 148 | 1.0 | 2.0 | 0.00 | 0.87 | 0.17 | 94 | 1008.9 |
| 20260503204325 | 45 | 148 | 1.0 | 2.0 | 0.00 | 0.87 | 0.17 | 94 | 1008.9 |
| 20260503203833 | 45 | 148 | 1.0 | 3.0 | 0.00 | 0.87 | 0.17 | 94 | 1009.0 |
| 20260503203340 | 45 | 148 | 1.0 | 3.0 | 0.00 | 0.87 | 0.17 | 94 | 1009.1 |
| 20260503202846 | 45 | 148 | 1.0 | 2.0 | 0.00 | 0.87 | 0.17 | 94 | 1009.2 |
| 20260503202334 | 45 | 148 | 0.0 | 0.0 | 0.00 | 0.87 | 0.17 | 94 | 1009.3 |
| 20260503201839 | 45 | 148 | 0.0 | 0.0 | 0.00 | 0.87 | 0.17 | 94 | 1009.3 |
| 20260503201326 | 45 | 148 | 0.0 | 1.0 | 0.00 | 0.87 | 0.17 | 94 | 1009.4 |
| 20260503200832 | 45 | 148 | 0.0 | 1.0 | 0.00 | 0.87 | 0.17 | 94 | 1009.4 |
| 20260503200331 | 45 | 148 | 0.0 | 1.0 | 0.00 | 0.87 | 0.17 | 94 | 1009.5 |
| 20260503195838 | 45 | 148 | 1.0 | 1.0 | 0.00 | 0.87 | 0.17 | 94 | 1009.4 |
| 20260503195346 | 45 | 148 | 0.0 | 2.0 | 0.00 | 0.87 | 0.17 | 94 | 1009.4 |
| 20260503194831 | 45 | 148 | 0.0 | 2.0 | 0.00 | 0.87 | 0.17 | 94 | 1009.5 |
| 20260503194330 | 45 | 148 | 1.0 | 2.0 | 0.00 | 0.87 | 0.17 | 94 | 1009.4 |
| 20260503193831 | 45 | 148 | 0.0 | 1.0 | 0.00 | 0.87 | 0.17 | 94 | 1009.5 |
| 20260503193330 | 45 | 148 | 0.0 | 2.0 | 0.00 | 0.87 | 0.17 | 94 | 1009.5 |
| 20260503192840 | 45 | 148 | 0.0 | 1.0 | 0.00 | 0.87 | 0.17 | 94 | 1009.4 |
| 20260503192328 | 45 | 148 | 1.0 | 1.0 | 0.00 | 0.87 | 0.17 | 94 | 1009.5 |
| 20260503191828 | 45 | 148 | 1.0 | 1.0 | 0.00 | 0.87 | 0.17 | 94 | 1009.5 |
| 20260503191350 | 45 | 148 | 0.0 | 2.0 | 0.00 | 0.87 | 0.17 | 94 | 1009.6 |
| 20260503190830 | 45 | 148 | 0.0 | 2.0 | 0.00 | 0.87 | 0.17 | 94 | 1009.6 |
| 20260503190351 | 45 | 148 | 0.0 | 0.0 | 0.00 | 0.87 | 0.17 | 94 | 1009.6 |
| 20260503185851 | 45 | 148 | 0.0 | 1.0 | 0.00 | 0.87 | 0.17 | 94 | 1009.5 |
| 20260503185331 | 45 | 148 | 0.0 | 2.0 | 0.00 | 0.87 | 0.17 | 94 | 1009.4 |
| 20260503184832 | 45 | 148 | 1.0 | 2.0 | 0.00 | 0.87 | 0.17 | 94 | 1009.3 |
| 20260503184328 | 45 | 148 | 1.0 | 2.0 | 0.00 | 0.87 | 0.17 | 94 | 1009.4 |
| 20260503183849 | 45 | 148 | 1.0 | 3.0 | 0.00 | 0.87 | 0.17 | 93 | 1009.5 |
| 20260503183329 | 45 | 148 | 2.0 | 3.0 | 0.00 | 0.87 | 0.17 | 93 | 1009.5 |
| 20260503182830 | 45 | 148 | 0.0 | 2.0 | 0.00 | 0.87 | 0.17 | 93 | 1009.5 |
| 20260503182329 | 45 | 148 | 1.0 | 2.0 | 0.00 | 0.87 | 0.17 | 94 | 1009.6 |
| 20260503181829 | 45 | 148 | 0.0 | 2.0 | 0.00 | 0.87 | 0.17 | 93 | 1009.5 |
| 20260503181325 | 45 | 148 | 1.0 | 2.0 | 0.00 | 0.87 | 0.17 | 93 | 1009.6 |
| 20260503180826 | 45 | 148 | 1.0 | 2.0 | 0.00 | 0.87 | 0.17 | 94 | 1009.5 |
| 20260503180327 | 45 | 148 | 0.0 | 2.0 | 0.00 | 0.87 | 0.17 | 93 | 1009.5 |
| 20260503175835 | 45 | 148 | 1.0 | 2.0 | 0.00 | 0.87 | 0.17 | 93 | 1009.4 |
| 20260503175343 | 45 | 148 | 1.0 | 2.0 | 0.00 | 0.87 | 0.17 | 93 | 1009.4 |
| 20260503174831 | 45 | 148 | 1.0 | 3.0 | 0.00 | 0.87 | 0.17 | 93 | 1009.4 |
| 20260503174324 | 45 | 148 | 1.0 | 3.0 | 0.00 | 0.87 | 0.17 | 93 | 1009.4 |
| 20260503173847 | 45 | 148 | 1.0 | 5.0 | 0.00 | 0.87 | 0.17 | 93 | 1009.4 |
| 20260503173327 | 45 | 148 | 3.0 | 5.0 | 0.00 | 0.87 | 0.17 | 93 | 1009.4 |
| 20260503172828 | 45 | 149 | 1.0 | 3.0 | 0.00 | 0.87 | 0.17 | 93 | 1009.4 |
| 20260503172335 | 45 | 149 | 1.0 | 3.0 | 0.00 | 0.87 | 0.17 | 93 | 1009.4 |
| 20260503171828 | 45 | 149 | 1.0 | 3.0 | 0.00 | 0.87 | 0.17 | 93 | 1009.5 |
| 20260503171325 | 45 | 149 | 1.0 | 6.0 | 0.00 | 0.87 | 0.17 | 93 | 1009.6 |
| 20260503170825 | 45 | 149 | 2.0 | 5.0 | 0.00 | 0.87 | 0.17 | 93 | 1009.6 |
| 20260503170325 | 45 | 149 | 3.0 | 5.0 | 0.00 | 0.87 | 0.17 | 93 | 1009.7 |
| 20260503150834 | 45 | 128 | 3.0 | 6.0 | 0.00 | 0.87 | 0.17 | 93 | 1010.5 |
| 20260503150324 | 45 | 55 | 2.0 | 6.0 | 0.00 | 0.87 | 0.17 | 93 | 1010.5 |
| 20260503131331 | 44 | 122 | 3.0 | 7.0 | 0.00 | 0.87 | 0.17 | 94 | 1011.1 |
| 20260503130851 | 45 | 114 | 3.0 | 6.0 | 0.00 | 0.87 | 0.17 | 94 | 1011.1 |
| 20260503130330 | 45 | 72 | 4.0 | 6.0 | 0.00 | 0.87 | 0.17 | 94 | 1011.1 |
| 20260503110330 | 44 | 54 | 4.0 | 7.0 | 0.00 | 0.87 | 0.17 | 94 | 1011.1 |
| 20260503090331 | 44 | 83 | 4.0 | 10.0 | 0.00 | 0.87 | 0.17 | 94 | 1010.7 |
| 20260503081332 | 45 | 19 | 4.0 | 10.0 | 0.04 | 0.87 | 0.17 | 94 | 1010.5 |
| 20260503080840 | 45 | 72 | 5.0 | 9.0 | 0.04 | 0.87 | 0.17 | 94 | 1010.5 |
| 20260503080328 | 45 | 115 | 4.0 | 10.0 | 0.04 | 0.87 | 0.17 | 94 | 1010.5 |
| 20260503072851 | 45 | 38 | 4.0 | 13.0 | 0.04 | 0.83 | 0.17 | 93 | 1010.2 |
| 20260503072331 | 45 | 86 | 6.0 | 13.0 | 0.04 | 0.83 | 0.17 | 93 | 1010.2 |
| 20260503071856 | 45 | 209 | 5.0 | 13.0 | 0.04 | 0.83 | 0.17 | 93 | 1010.2 |
| 20260503071328 | 46 | 75 | 6.0 | 13.0 | 0.04 | 0.83 | 0.17 | 93 | 1010.1 |
| 20260503070828 | 46 | 360 | 5.0 | 10.0 | 0.08 | 0.83 | 0.17 | 93 | 1010.1 |
| 20260503070329 | 46 | 44 | 5.0 | 10.0 | 0.08 | 0.83 | 0.17 | 93 | 1010.1 |
| 20260503060331 | 51 | 78 | 3.0 | 6.0 | 0.28 | 0.75 | 0.15 | 94 | 1009.4 |
| 20260503054831 | 51 | 65 | 3.0 | 4.0 | 0.24 | 0.63 | 0.13 | 94 | 1009.4 |
| 20260503054352 | 51 | 94 | 1.0 | 4.0 | 0.24 | 0.59 | 0.12 | 93 | 1009.4 |
| 20260503053831 | 51 | 76 | 1.0 | 3.0 | 0.20 | 0.55 | 0.11 | 93 | 1009.5 |
| 20260503053352 | 51 | 77 | 1.0 | 3.0 | 0.20 | 0.51 | 0.10 | 93 | 1009.3 |
| 20260503052852 | 51 | 76 | 2.0 | 3.0 | 0.16 | 0.47 | 0.09 | 93 | 1009.3 |
| 20260503052331 | 51 | 283 | 1.0 | 2.0 | 0.20 | 0.47 | 0.09 | 93 | 1009.2 |
| 20260503051832 | 51 | 325 | 1.0 | 2.0 | 0.20 | 0.47 | 0.09 | 93 | 1009.2 |
| 20260503051340 | 51 | 325 | 0.0 | 2.0 | 0.20 | 0.47 | 0.09 | 93 | 1009.2 |
| 20260503050829 | 51 | 322 | 0.0 | 0.0 | 0.24 | 0.47 | 0.09 | 93 | 1009.2 |
| 20260503050350 | 51 | 322 | 0.0 | 0.0 | 0.24 | 0.47 | 0.09 | 93 | 1009.2 |
| 20260503045829 | 51 | 322 | 0.0 | 0.0 | 0.16 | 0.39 | 0.08 | 93 | 1009.2 |
| 20260503045331 | 50 | 322 | 0.0 | 0.0 | 0.16 | 0.39 | 0.08 | 93 | 1009.2 |
| 20260503044838 | 50 | 322 | 0.0 | 0.0 | 0.16 | 0.39 | 0.08 | 93 | 1009.2 |
| 20260503044328 | 50 | 322 | 0.0 | 0.0 | 0.12 | 0.35 | 0.07 | 93 | 1009.3 |
| 20260503043830 | 50 | 322 | 0.0 | 0.0 | 0.12 | 0.35 | 0.07 | 93 | 1009.5 |
| 20260503043338 | 50 | 322 | 0.0 | 0.0 | 0.08 | 0.31 | 0.06 | 93 | 1009.4 |
| 20260503042827 | 50 | 322 | 0.0 | 0.0 | 0.08 | 0.31 | 0.06 | 93 | 1009.4 |
| 20260503042334 | 50 | 322 | 0.0 | 0.0 | 0.04 | 0.28 | 0.06 | 93 | 1009.4 |
| 20260503041901 | 50 | 322 | 0.0 | 0.0 | 0.04 | 0.28 | 0.06 | 93 | 1009.3 |
| 20260503041325 | 50 | 322 | 0.0 | 0.0 | 0.04 | 0.28 | 0.06 | 92 | 1009.2 |
| 20260503040833 | 50 | 322 | 0.0 | 0.0 | 0.00 | 0.24 | 0.05 | 92 | 1009.1 |
| 20260503040331 | 50 | 322 | 0.0 | 1.0 | 0.00 | 0.24 | 0.05 | 92 | 1009.1 |
| 20260503035830 | 50 | 322 | 0.0 | 2.0 | 0.00 | 0.24 | 0.05 | 92 | 1009.0 |
| 20260503035337 | 50 | 322 | 1.0 | 2.0 | 0.00 | 0.24 | 0.05 | 92 | 1009.0 |
| 20260503034825 | 50 | 323 | 0.0 | 2.0 | 0.00 | 0.24 | 0.05 | 92 | 1009.0 |
| 20260503034331 | 50 | 322 | 0.0 | 1.0 | 0.00 | 0.24 | 0.05 | 92 | 1008.9 |
| 20260503033838 | 50 | 323 | 0.0 | 2.0 | 0.00 | 0.24 | 0.05 | 93 | 1008.9 |
| 20260503033325 | 50 | 322 | 0.0 | 1.0 | 0.00 | 0.24 | 0.05 | 93 | 1008.9 |
| 20260503032830 | 50 | 322 | 0.0 | 0.0 | 0.00 | 0.24 | 0.05 | 93 | 1009.0 |
| 20260503032331 | 50 | 322 | 0.0 | 0.0 | 0.00 | 0.24 | 0.05 | 93 | 1009.0 |
| 20260503031831 | 50 | 322 | 0.0 | 0.0 | 0.00 | 0.24 | 0.05 | 93 | 1009.0 |
| 20260503031351 | 51 | 322 | 0.0 | 1.0 | 0.00 | 0.24 | 0.05 | 93 | 1009.0 |
| 20260503030830 | 51 | 322 | 0.0 | 2.0 | 0.00 | 0.24 | 0.05 | 93 | 1009.0 |
| 20260503030400 | 51 | 322 | 0.0 | 2.0 | 0.00 | 0.24 | 0.05 | 93 | 1009.0 |
| 20260503025827 | 51 | 322 | 1.0 | 2.0 | 0.00 | 0.24 | 0.05 | 92 | 1009.0 |
| 20260503025336 | 50 | 322 | 0.0 | 0.0 | 0.00 | 0.24 | 0.05 | 92 | 1009.0 |
| 20260503024825 | 50 | 322 | 0.0 | 0.0 | 0.00 | 0.24 | 0.05 | 92 | 1008.9 |
| 20260503024335 | 50 | 322 | 0.0 | 0.0 | 0.00 | 0.24 | 0.05 | 92 | 1008.9 |
| 20260503023825 | 50 | 322 | 0.0 | 0.0 | 0.00 | 0.24 | 0.05 | 92 | 1008.9 |
| 20260503023325 | 51 | 322 | 0.0 | 0.0 | 0.04 | 0.24 | 0.05 | 92 | 1008.8 |
| 20260503022835 | 51 | 322 | 0.0 | 0.0 | 0.04 | 0.24 | 0.05 | 92 | 1008.8 |
| 20260503022343 | 51 | 322 | 0.0 | 0.0 | 0.04 | 0.24 | 0.05 | 92 | 1008.7 |
| 20260503021832 | 51 | 322 | 0.0 | 0.0 | 0.04 | 0.24 | 0.05 | 92 | 1008.7 |
| 20260503021340 | 51 | 322 | 0.0 | 0.0 | 0.08 | 0.24 | 0.05 | 92 | 1008.7 |
| 20260503020849 | 51 | 322 | 0.0 | 0.0 | 0.08 | 0.24 | 0.05 | 92 | 1008.7 |
| 20260503020356 | 51 | 322 | 0.0 | 0.0 | 0.08 | 0.24 | 0.05 | 92 | 1008.7 |
| 20260503015824 | 51 | 322 | 0.0 | 0.0 | 0.08 | 0.24 | 0.05 | 91 | 1008.7 |
| 20260503015324 | 51 | 322 | 0.0 | 0.0 | 0.12 | 0.24 | 0.05 | 91 | 1008.6 |
| 20260503014825 | 51 | 322 | 0.0 | 0.0 | 0.12 | 0.24 | 0.05 | 91 | 1008.6 |
| 20260503014326 | 51 | 322 | 0.0 | 0.0 | 0.16 | 0.24 | 0.05 | 91 | 1008.7 |
| 20260503013826 | 51 | 322 | 0.0 | 0.0 | 0.16 | 0.24 | 0.05 | 91 | 1008.6 |
| 20260503013327 | 51 | 322 | 0.0 | 0.0 | 0.12 | 0.20 | 0.04 | 90 | 1008.6 |
| 20260503012835 | 51 | 322 | 0.0 | 0.0 | 0.12 | 0.20 | 0.04 | 91 | 1008.7 |
| 20260503012404 | 51 | 322 | 0.0 | 0.0 | 0.12 | 0.20 | 0.04 | 91 | 1008.7 |
| 20260503011830 | 51 | 322 | 0.0 | 0.0 | 0.12 | 0.20 | 0.04 | 90 | 1008.7 |
| 20260503011330 | 51 | 322 | 0.0 | 0.0 | 0.08 | 0.16 | 0.03 | 90 | 1008.7 |
| 20260503010830 | 51 | 322 | 0.0 | 2.0 | 0.08 | 0.16 | 0.03 | 90 | 1008.8 |
| 20260503010329 | 51 | 322 | 0.0 | 2.0 | 0.08 | 0.16 | 0.03 | 90 | 1008.8 |
| 20260503005836 | 51 | 322 | 0.0 | 1.0 | 0.08 | 0.16 | 0.03 | 90 | 1008.8 |
| 20260503005324 | 51 | 322 | 0.0 | 2.0 | 0.04 | 0.12 | 0.02 | 90 | 1008.7 |
| 20260503004851 | 51 | 322 | 1.0 | 2.0 | 0.04 | 0.12 | 0.02 | 90 | 1008.7 |
| 20260503004329 | 51 | 322 | 1.0 | 2.0 | 0.00 | 0.08 | 0.02 | 90 | 1008.8 |
| 20260503003828 | 51 | 322 | 0.0 | 2.0 | 0.00 | 0.08 | 0.02 | 89 | 1008.8 |
| 20260503003329 | 51 | 322 | 2.0 | 2.0 | 0.00 | 0.08 | 0.02 | 89 | 1008.8 |
| 20260503002829 | 51 | 322 | 0.0 | 1.0 | 0.00 | 0.08 | 0.02 | 89 | 1008.6 |
| 20260503002330 | 51 | 322 | 1.0 | 2.0 | 0.00 | 0.08 | 0.02 | 88 | 1008.5 |
| 20260503001850 | 51 | 322 | 0.0 | 2.0 | 0.04 | 0.08 | 0.02 | 87 | 1008.5 |
| 20260503001329 | 51 | 322 | 0.0 | 1.0 | 0.04 | 0.08 | 0.02 | 87 | 1008.5 |
| 20260503000829 | 51 | 322 | 0.0 | 1.0 | 0.08 | 0.08 | 0.02 | 87 | 1008.4 |
| 20260503000329 | 52 | 322 | 0.0 | 2.0 | 0.08 | 0.08 | 0.02 | 86 | 1008.4 |
| 20260502235830 | 52 | 322 | 1.0 | 2.0 | 0.08 | 0.08 | 0.02 | 86 | 1008.5 |
| 20260502235349 | 52 | 323 | 2.0 | 2.0 | 0.08 | 0.08 | 0.02 | 85 | 1008.4 |
| 20260502234829 | 52 | 323 | 1.0 | 2.0 | 0.08 | 0.08 | 0.02 | 84 | 1008.5 |
| 20260502234338 | 52 | 323 | 0.0 | 2.0 | 0.08 | 0.08 | 0.02 | 84 | 1008.5 |
| 20260502233847 | 53 | 323 | 1.0 | 2.0 | 0.08 | 0.08 | 0.02 | 83 | 1008.8 |
| 20260502233336 | 53 | 323 | 1.0 | 5.0 | 0.08 | 0.08 | 0.02 | 81 | 1008.9 |
| 20260502232824 | 53 | 323 | 1.0 | 8.0 | 0.08 | 0.08 | 0.02 | 78 | 1008.9 |
| 20260502232330 | 53 | 304 | 5.0 | 9.0 | 0.08 | 0.08 | 0.02 | 78 | 1009.1 |
| 20260502231839 | 54 | 321 | 5.0 | 9.0 | 0.04 | 0.04 | 0.01 | 76 | 1009.0 |
| 20260502231346 | 55 | 310 | 5.0 | 6.0 | 0.04 | 0.04 | 0.01 | 76 | 1009.2 |
| 20260502230831 | 56 | 306 | 2.0 | 3.0 | 0.00 | 0.00 | 0.00 | 75 | 1009.4 |
| 20260502230332 | 56 | 306 | 1.0 | 7.0 | 0.00 | 0.00 | 0.00 | 74 | 1009.4 |
| 20260502225840 | 57 | 306 | 2.0 | 12.0 | 0.00 | 0.00 | 0.00 | 72 | 1009.5 |
| 20260502225329 | 57 | 283 | 4.0 | 12.0 | 0.00 | 0.00 | 0.00 | 71 | 1009.7 |
| 20260502224837 | 57 | 309 | 3.0 | 9.0 | 0.00 | 0.00 | 0.00 | 70 | 1009.2 |
| 20260502224325 | 58 | 309 | 4.0 | 11.0 | 0.00 | 0.00 | 0.00 | 69 | 1009.0 |
| 20260502223852 | 59 | 306 | 4.0 | 11.0 | 0.00 | 0.00 | 0.00 | 69 | 1008.9 |
| 20260502223332 | 59 | 288 | 6.0 | 11.0 | 0.00 | 0.00 | 0.00 | 65 | 1009.0 |
| 20260502222858 | 60 | 314 | 6.0 | 11.0 | 0.00 | 0.00 | 0.00 | 63 | 1009.1 |
| 20260502222345 | 60 | 304 | 6.0 | 11.0 | 0.00 | 0.00 | 0.00 | 60 | 1008.9 |
| 20260502221851 | 60 | 299 | 5.0 | 9.0 | 0.00 | 0.00 | 0.00 | 60 | 1008.9 |
| 20260502221351 | 60 | 287 | 5.0 | 9.0 | 0.00 | 0.00 | 0.00 | 60 | 1008.8 |